Tracking 17842 objects as of 31-August-2016
HD Live streaming from Space Station
objects crossing your sky now

COSMOS 1626

Track COSMOS 1626 now!
10-day predictions
COSMOS 1626 is classified as:


NORAD ID: 15494
Int'l Code: 1985-009A
Perigee: 506.3 km
Apogee: 510.2 km
Inclination: 82.5 °
Period: 94.6 minutes
Semi major axis: 6879 km
RCS: 7.281 m2 (large)
Launch date: January 24, 1985
Source: Commonwealth of Independent States (former USSR) (CIS)
Launch site: PLESETSK MISSILE AND SPACE COMPLEX (PKMTR)
Your satellite tracking list
Your tracking list is empty





NASA's NSSDC Master Catalog

Two Line Element Set (TLE):
1 15494U 85009A   16243.86547250  .00001620  00000-0  70458-4 0  9995
2 15494  82.4822 179.9413 0002838  28.0790 359.1943 15.21573908724628
Source of the keplerian elements: AFSPC

N2YO: 437